FIREFLY-1

导读

FIREFLY-1是美国于北京时间2025年1月14日08:00成功发射的航天器,由萤火虫航天主导研发,本次发射搭乘SpaceX猎鹰9号火箭,任务旨在将蓝色幽灵(Blue Ghost)着陆器输送至地月转移轨道,后续将完成月球软着陆探测,开展多项科学载荷试验,助力美国月球科研与商业航天探索进程,标志着商业月球探测任务迈出关键一步。

基本信息
目录编号:
62701
目录名称:
FIREFLY-1
国际标识:
2025-009CW
轨道中心:
EARTH
卫星名称:
FIREFLY-1
卫星全名:
FIREFLY-1
卫星状态:
在轨 (已飞行599 天)
发射日期:
2025-01-14 UTC
国别 :
印度 (IN)
星等 :
--
轨道信息
数据来源 国际轨道数据
星历时间: 2026-09-05T03:04:21+0800
5小时前
查看轨道信息
半长轴: 6967.568km
偏心率: 0.0004996
轨道倾角: 97.701°
近地点辐角 81.744°
升交点赤经 324.251°
平近点角 278.434°
近地点: 585.95km
远地点: 592.912km
周期: 96.468分钟
每日圈数: 14.92729
详细信息
使用方式:
暂无
2D轨道图
3D轨道图
轨道高度分析图
轨道倾角分析图
轨道综合分析图
查看轨道综合分析图
交会数据列表
事件ID 空间交会对象 最接近时刻(TCA) 交会距离 交会风险概率(CRP) 交会风险指数(CRI) 操作
CDM_260830-153305-414906-270124
GSLV R/B (54149)
2026-08-30T
15:33:47+0000
2.143 km
极远距离
2.392231E-6 低风险 0.43
CDM_260906-203806-270106-666321
2026-09-06T
20:38:54+0000
2.530 km
极远距离
1.684187E-6 低风险 0.4
CDM_260906-001904-114006-270122
2026-09-06T
00:19:14+0000
2.536 km
极远距离
1.677495E-6 低风险 0.39
CDM_260905-111006-270106-898622
2026-09-05T
11:10:09+0000
2.717 km
极远距离
1.542001E-6 低风险 0.39
CDM_260907-072106-270106-992421
2026-09-07T
07:21:01+0000
2.978 km
极远距离
1.361387E-6 低风险 0.38